NPV7634 LGZA-LGSA

Flight info

Callsign NPV7634
Flight time 0h 42m
Altitude 23000
Route ARA A14 TRL J65 SOKRI
Aircraft A20N/M-SDE2E3FGHIRWXY/LB1

Departure

Time 2026-05-07 09:56
Airport Zakynthos International Airport Dionysios Solomos (LGZA)

Arrival

Time 2026-05-07 10:38
Airport Chania International Airport (LGSA)
Time Latitude Longitude Altitude Speed Heading
2026-05-07 09:35 37.75213 20.88599 21 ft 0 kts 73°
2026-05-07 09:46 37.75209 20.88581 20 ft 4 kts 73°
2026-05-07 09:46 37.75203 20.88555 20 ft 3 kts 73°
2026-05-07 09:46 37.75194 20.88524 22 ft 4 kts 51°
2026-05-07 09:46 37.75178 20.88514 20 ft 3 kts 344°
2026-05-07 09:47 37.75158 20.88520 20 ft 0 kts 344°
2026-05-07 09:53 37.75160 20.88520 20 ft 2 kts 344°
2026-05-07 09:53 37.75246 20.88491 22 ft 18 kts 345°
2026-05-07 09:53 37.75377 20.88442 20 ft 21 kts 341°
2026-05-07 09:54 37.75474 20.88356 23 ft 16 kts 290°
2026-05-07 09:54 37.75550 20.88255 21 ft 19 kts 345°
2026-05-07 09:54 37.75690 20.88206 23 ft 22 kts 345°
2026-05-07 09:54 37.75854 20.88144 22 ft 27 kts 343°
2026-05-07 09:55 37.76010 20.88069 20 ft 14 kts 313°
2026-05-07 09:55 37.76057 20.88078 20 ft 10 kts 130°
2026-05-07 09:55 37.75991 20.88094 21 ft 9 kts 159°
2026-05-07 09:55 37.75684 20.88207 24 ft 89 kts 164°
2026-05-07 09:56 37.74851 20.88522 28 ft 156 kts 163°
2026-05-07 09:56 37.73814 20.88917 807 ft 154 kts 162°
2026-05-07 09:56 37.72789 20.89290 1724 ft 152 kts 163°
2026-05-07 09:56 37.71740 20.89689 2326 ft 166 kts 163°
2026-05-07 09:57 37.70542 20.90077 2714 ft 190 kts 177°
2026-05-07 09:57 37.69213 20.89574 3201 ft 214 kts 216°
2026-05-07 09:57 37.68370 20.88004 4039 ft 225 kts 255°
2026-05-07 09:57 37.68504 20.86063 4985 ft 233 kts 294°
2026-05-07 09:58 37.69627 20.84589 5893 ft 241 kts 334°
2026-05-07 09:58 37.71274 20.84294 6791 ft 246 kts 12°
2026-05-07 09:58 37.72815 20.85215 7671 ft 248 kts 37°
2026-05-07 09:58 37.74138 20.86621 8564 ft 250 kts 44°
2026-05-07 09:59 37.75395 20.88173 9458 ft 255 kts 46°
2026-05-07 09:59 37.76628 20.89876 10068 ft 274 kts 49°
2026-05-07 09:59 37.77931 20.91774 10489 ft 298 kts 49°
2026-05-07 09:59 37.79353 20.93825 10863 ft 323 kts 48°
2026-05-07 10:00 37.80914 20.96013 11205 ft 347 kts 47°
2026-05-07 10:00 37.82607 20.98322 11664 ft 365 kts 46°
2026-05-07 10:00 37.84374 21.00681 12396 ft 373 kts 45°
2026-05-07 10:00 37.86184 21.03069 13175 ft 379 kts 44°
2026-05-07 10:01 37.88034 21.05493 13949 ft 385 kts 43°
2026-05-07 10:01 37.89911 21.07953 14639 ft 391 kts 44°
2026-05-07 10:01 37.91806 21.10447 15360 ft 395 kts 44°
2026-05-07 10:01 37.93720 21.12977 16097 ft 399 kts 45°
2026-05-07 10:02 37.95646 21.15532 16816 ft 403 kts 45°
2026-05-07 10:02 37.97586 21.18122 17520 ft 407 kts 45°
2026-05-07 10:02 37.99516 21.20719 18206 ft 412 kts 46°
2026-05-07 10:02 38.01487 21.23381 18824 ft 416 kts 46°
2026-05-07 10:03 38.03470 21.26072 19424 ft 419 kts 46°
2026-05-07 10:03 38.05467 21.28784 20027 ft 423 kts 46°
2026-05-07 10:03 38.07488 21.31528 20588 ft 427 kts 46°
2026-05-07 10:03 38.09486 21.34336 21155 ft 431 kts 51°
2026-05-07 10:04 38.10983 21.37644 21705 ft 436 kts 69°
2026-05-07 10:04 38.11671 21.41395 22256 ft 438 kts 87°
2026-05-07 10:04 38.11467 21.45240 22797 ft 438 kts 105°
2026-05-07 10:04 38.10423 21.48846 23081 ft 435 kts 122°
2026-05-07 10:05 38.08607 21.51903 23140 ft 437 kts 138°
2026-05-07 10:05 38.06408 21.54586 23137 ft 440 kts 140°
2026-05-07 10:05 38.04184 21.57270 23133 ft 441 kts 140°
2026-05-07 10:05 38.01962 21.59952 23131 ft 441 kts 140°
2026-05-07 10:06 37.99742 21.62643 23140 ft 441 kts 140°
2026-05-07 10:06 37.97525 21.65338 23124 ft 442 kts 139°
2026-05-07 10:06 37.95309 21.68033 23137 ft 442 kts 139°
2026-05-07 10:06 37.93090 21.70734 23136 ft 443 kts 139°
2026-05-07 10:07 37.90865 21.73438 23138 ft 443 kts 139°
2026-05-07 10:07 37.89393 21.75221 23141 ft 443 kts 140°
2026-05-07 10:07 37.87166 21.77916 23139 ft 443 kts 140°
2026-05-07 10:07 37.84938 21.80612 23130 ft 442 kts 140°
2026-05-07 10:08 37.81992 21.84169 23125 ft 442 kts 140°
2026-05-07 10:08 37.79767 21.86852 23128 ft 442 kts 140°
2026-05-07 10:08 37.78264 21.88662 23128 ft 442 kts 140°
2026-05-07 10:08 37.76035 21.91346 23129 ft 442 kts 140°
2026-05-07 10:09 37.73811 21.94025 23130 ft 442 kts 140°
2026-05-07 10:09 37.71585 21.96705 23129 ft 442 kts 140°
2026-05-07 10:09 37.69359 21.99382 23127 ft 442 kts 140°
2026-05-07 10:09 37.67159 22.02026 23116 ft 443 kts 140°
2026-05-07 10:10 37.64932 22.04703 23118 ft 443 kts 140°
2026-05-07 10:10 37.62694 22.07390 23118 ft 443 kts 140°
2026-05-07 10:10 37.60460 22.10068 23123 ft 444 kts 140°
2026-05-07 10:10 37.58219 22.12749 23122 ft 444 kts 140°
2026-05-07 10:11 37.55981 22.15423 23130 ft 443 kts 140°
2026-05-07 10:11 37.53742 22.18097 23141 ft 443 kts 140°
2026-05-07 10:11 37.51505 22.20764 23144 ft 443 kts 140°
2026-05-07 10:11 37.49267 22.23434 23147 ft 442 kts 140°
2026-05-07 10:12 37.47034 22.26097 23145 ft 442 kts 140°
2026-05-07 10:12 37.44803 22.28759 23144 ft 442 kts 140°
2026-05-07 10:12 37.42570 22.31417 23142 ft 442 kts 140°
2026-05-07 10:12 37.40330 22.34064 23140 ft 441 kts 141°
2026-05-07 10:13 37.38024 22.36612 23122 ft 441 kts 143°
2026-05-07 10:13 37.35651 22.39046 23118 ft 440 kts 145°
2026-05-07 10:13 37.33236 22.41414 23116 ft 440 kts 146°
2026-05-07 10:13 37.30804 22.43759 23118 ft 441 kts 146°
2026-05-07 10:14 37.28377 22.46110 23121 ft 441 kts 146°
2026-05-07 10:14 37.25985 22.48454 23123 ft 442 kts 145°
2026-05-07 10:14 37.23573 22.50849 23124 ft 442 kts 145°
2026-05-07 10:14 37.21167 22.53262 23125 ft 443 kts 144°
2026-05-07 10:15 37.18767 22.55681 23125 ft 443 kts 144°
2026-05-07 10:15 37.16364 22.58107 23129 ft 443 kts 145°
2026-05-07 10:15 37.13959 22.60525 23134 ft 444 kts 145°
2026-05-07 10:15 37.11544 22.62938 23130 ft 444 kts 145°
2026-05-07 10:16 37.09127 22.65340 23135 ft 444 kts 145°
2026-05-07 10:16 37.06707 22.67744 23139 ft 444 kts 145°
2026-05-07 10:16 37.04285 22.70150 23139 ft 444 kts 145°
2026-05-07 10:16 37.01866 22.72552 23142 ft 444 kts 145°
2026-05-07 10:17 36.99442 22.74958 23144 ft 444 kts 145°
2026-05-07 10:17 36.97050 22.77333 23148 ft 444 kts 145°
2026-05-07 10:17 36.94628 22.79736 23142 ft 444 kts 145°
2026-05-07 10:17 36.92201 22.82139 23144 ft 444 kts 145°
2026-05-07 10:18 36.89778 22.84539 23146 ft 445 kts 145°
2026-05-07 10:18 36.87348 22.86945 23143 ft 445 kts 145°
2026-05-07 10:18 36.84926 22.89343 23142 ft 445 kts 145°
2026-05-07 10:18 36.82503 22.91739 23137 ft 445 kts 144°
2026-05-07 10:19 36.80073 22.94139 23140 ft 445 kts 144°
2026-05-07 10:19 36.77642 22.96537 23144 ft 445 kts 144°
2026-05-07 10:19 36.75213 22.98926 23143 ft 445 kts 144°
2026-05-07 10:19 36.72770 23.01323 23144 ft 445 kts 144°
2026-05-07 10:20 36.70336 23.03711 23147 ft 445 kts 144°
2026-05-07 10:20 36.67902 23.06102 23149 ft 446 kts 144°
2026-05-07 10:20 36.65502 23.08461 23149 ft 446 kts 144°
2026-05-07 10:20 36.63070 23.10850 23151 ft 446 kts 144°
2026-05-07 10:21 36.60630 23.13243 23144 ft 446 kts 144°
2026-05-07 10:21 36.58191 23.15631 23142 ft 446 kts 144°
2026-05-07 10:21 36.55745 23.18024 23131 ft 447 kts 144°
2026-05-07 10:21 36.53305 23.20411 23132 ft 447 kts 144°
2026-05-07 10:22 36.50859 23.22804 23137 ft 447 kts 144°
2026-05-07 10:22 36.48414 23.25193 23140 ft 447 kts 144°
2026-05-07 10:22 36.45963 23.27581 23143 ft 448 kts 145°
2026-05-07 10:22 36.43508 23.29968 23147 ft 448 kts 145°
2026-05-07 10:23 36.41086 23.32321 23150 ft 448 kts 145°
2026-05-07 10:23 36.38635 23.34707 23155 ft 448 kts 144°
2026-05-07 10:23 36.36180 23.37096 23157 ft 448 kts 144°
2026-05-07 10:23 36.33728 23.39481 23158 ft 448 kts 144°
2026-05-07 10:24 36.31275 23.41866 23162 ft 448 kts 145°
2026-05-07 10:24 36.28817 23.44248 23160 ft 448 kts 144°
2026-05-07 10:24 36.26362 23.46625 23159 ft 448 kts 144°
2026-05-07 10:24 36.23904 23.49004 23162 ft 448 kts 144°
2026-05-07 10:25 36.21450 23.51383 23165 ft 448 kts 144°
2026-05-07 10:25 36.19007 23.53753 22956 ft 443 kts 144°
2026-05-07 10:25 36.16588 23.56101 22695 ft 439 kts 144°
2026-05-07 10:25 36.14195 23.58419 22276 ft 433 kts 144°
2026-05-07 10:26 36.11860 23.60680 21626 ft 429 kts 144°
2026-05-07 10:26 36.09520 23.62943 21028 ft 424 kts 144°
2026-05-07 10:26 36.07202 23.65179 20456 ft 419 kts 144°
2026-05-07 10:26 36.04910 23.67387 19891 ft 415 kts 144°
2026-05-07 10:27 36.02647 23.69565 19348 ft 410 kts 144°
2026-05-07 10:27 36.00407 23.71720 18803 ft 406 kts 144°
2026-05-07 10:27 35.98168 23.73845 18241 ft 403 kts 145°
2026-05-07 10:27 35.95935 23.75899 17680 ft 399 kts 145°
2026-05-07 10:28 35.93702 23.77916 17132 ft 395 kts 145°
2026-05-07 10:28 35.91519 23.79876 16588 ft 392 kts 145°
2026-05-07 10:28 35.89326 23.81847 16026 ft 389 kts 145°
2026-05-07 10:28 35.87143 23.83815 15455 ft 388 kts 144°
2026-05-07 10:29 35.84939 23.85809 14870 ft 387 kts 144°
2026-05-07 10:29 35.82805 23.87745 14295 ft 386 kts 144°
2026-05-07 10:29 35.80645 23.89707 13671 ft 385 kts 144°
2026-05-07 10:30 35.76355 23.93597 12453 ft 380 kts 144°
2026-05-07 10:30 35.74236 23.95520 11846 ft 377 kts 143°
2026-05-07 10:30 35.72140 23.97452 11225 ft 374 kts 143°
2026-05-07 10:30 35.70078 23.99373 10778 ft 366 kts 143°
2026-05-07 10:31 35.68095 24.01224 10666 ft 349 kts 143°
2026-05-07 10:31 35.66200 24.02987 10535 ft 335 kts 143°
2026-05-07 10:31 35.64386 24.04621 10378 ft 312 kts 149°
2026-05-07 10:31 35.62415 24.05508 9977 ft 296 kts 176°
2026-05-07 10:32 35.60467 24.05243 9736 ft 274 kts 202°
2026-05-07 10:32 35.58923 24.04005 9247 ft 263 kts 230°
2026-05-07 10:32 35.57979 24.02121 8656 ft 258 kts 246°
2026-05-07 10:32 35.57253 24.00111 8049 ft 257 kts 248°
2026-05-07 10:33 35.56577 23.98097 7464 ft 254 kts 252°
2026-05-07 10:33 35.56448 23.95991 7032 ft 245 kts 282°
2026-05-07 10:33 35.57198 23.94167 6614 ft 241 kts 315°
2026-05-07 10:33 35.58643 23.93259 6116 ft 240 kts 354°
2026-05-07 10:34 35.60245 23.93681 5624 ft 238 kts 36°
2026-05-07 10:34 35.61181 23.95222 5408 ft 222 kts 77°
2026-05-07 10:34 35.61058 23.97021 5042 ft 210 kts 119°
2026-05-07 10:34 35.60097 23.98306 4367 ft 204 kts 146°
2026-05-07 10:35 35.58892 23.99249 3771 ft 207 kts 143°
2026-05-07 10:35 35.57855 24.00476 3051 ft 207 kts 136°
2026-05-07 10:35 35.56845 24.01705 2227 ft 199 kts 129°
2026-05-07 10:35 35.56244 24.03072 2125 ft 168 kts 104°
2026-05-07 10:36 35.56048 24.04406 2218 ft 153 kts 97°
2026-05-07 10:36 35.55905 24.05658 2174 ft 144 kts 103°
2026-05-07 10:36 35.55676 24.06888 1796 ft 153 kts 105°
2026-05-07 10:36 35.55360 24.08089 1632 ft 142 kts 112°
2026-05-07 10:37 35.54994 24.09236 1379 ft 147 kts 111°
2026-05-07 10:37 35.54636 24.10429 1018 ft 149 kts 110°
2026-05-07 10:37 35.54261 24.11590 762 ft 144 kts 111°
2026-05-07 10:37 35.53900 24.12708 559 ft 138 kts 111°
2026-05-07 10:38 35.53563 24.13780 438 ft 129 kts 111°
2026-05-07 10:38 35.53279 24.14641 454 ft 85 kts 111°
2026-05-07 10:38 35.53130 24.15110 462 ft 24 kts 110°
2026-05-07 10:38 35.53124 24.15128 462 ft 0 kts 111°